Погода в Бютяе-Юрдя

Россия / Республика Саха (Якутия)     62°49′37″N   129°36′02″E
темп.,
°C
ветер,
м/с
пор.,
м/с
влажн.,
%
обл.,
%
осадки,
мм/ч
давл.,
гПа
погр.,
м
27 февраля, сб
сб2700:00−35всв2210049 0.0 103319
03:00−35всв2210067 0.0 103125
06:00−36всв2310099 0.0 103144
09:00−34всв2499100 0.0 103094
12:00−29всв359599 0.0 1028288
15:00−26всв4795100 0.0 1024378
18:00−27всв3597100 0.0 1024111
21:00−28св2497100 0.0 102196
28 февраля, вс
вс2800:00−29ссв2297100 0.0 101934
03:00−29с2294100 0.0 101728
06:00−29сз2391100 0.0 101737
09:00−28зсз2590100 0.0 1017139
12:00−24зсз4791100 0.0 1019456
15:00−23зсз4891100 0.0 1020591
18:00−27зсз3894100 0.0 1022224
21:00−28з31095100 0.1 1023416
1 марта, пн
пн100:00−27зсз3995100 0.1 1024606
03:00−27зсз3895100 0.3 1024598
06:00−28з3896100 0.1 1024492
09:00−27зсз4893100 0.3 1025720
12:00−26зсз4689100 0.1 1025808
15:00−26зсз4689100 0.3 1025886
18:00−27зсз3696100 0.1 1026259
21:00−28з3696100 0.2 1026260
2 марта, вт
вт200:00−29з349697 0.1 1026136
03:00−31з349696 0.1 1026104
06:00−32з239799 0.0 102641
09:00−32з229798 0.1 102676
12:00−28зсз2388100 0.0 1026494
15:00−27зсз2385100 0.0 1025701
18:00−29з1294100 0.0 102519
21:00−30зсз1297100 0.1 102619
3 марта, ср
ср300:00−30зсз1198100 0.1 102523
03:00−30зсз1298100 0.2 102527
06:00−31сз1298100 0.1 102532
09:00−30сз1297100 0.1 1024111
12:00−28сз2289100 0.1 1022439
15:00−27сз2388100 0.1 1021602
18:00−29зсз2395100 0.1 101976
21:00−30зсз369599 0.1 1018220